Location: Vienna
(48.2082°N, 16.3738°E)
Time: 22:27:46
(UTC+02:00)

ISS - Pass Details

Date: 14 July 2018
Orbit: 402 x 408 km, 51.6° (Epoch: 20 July)

Event Time Altitude Azimuth Distance (km) Brightness Sun altitude
Rises 04:14:05 0° 285° (WNW) 2,332 -0.3 -7.8°
Reaches altitude 10° 04:16:13 10° 291° (WNW) 1,472 -1.2 -7.5°
Maximum altitude 04:19:25 46° 7° (N) 557 -2.7 -7.1°
Drops below altitude 10° 04:22:37 10° 83° (E) 1,473 -0.1 -6.8°
Sets 04:24:45 0° 89° (E) 2,333 0.8 -6.5°
